Weather History for KCHO - November, 2013

Change the Weather History Date:

Tuesday, November 26, 2013

  Actual Average Record
Temperature  
Mean Temperature 36 °F 43 °F  
Max Temperature 38 °F 53 °F 73 °F (1973)
Min Temperature 33 °F 34 °F 2 °F (1935)
Degree Days  
Heating Degree Days 29 22  
Month to date heating degree days 498 452  
Since 1 July heating degree days 813 801  
Cooling Degree Days 0 0  
Month to date cooling degree days 1 0  
Year to date cooling degree days 1146 1034  
Moisture  
Dew Point 29 °F    
Average Humidity 68    
Maximum Humidity 100    
Minimum Humidity 35    
Precipitation  
Precipitation 2.03 in 0.13 in 2.03 in (2013)
Month to date precipitation 2.52 3.29  
Year to date precipitation 40.21 39.02  
Sea Level Pressure  
Sea Level Pressure 30.01 in    
Wind  
Wind Speed 5 mph (ENE)    
Max Wind Speed 13 mph    
Max Gust Speed 15 mph    
Visibility 4 miles    
Events Rain    
T = Trace of Precipitation, MM = Missing Value Source: NWS Daily Summary

Daily Weather History Graph

Daily Weather History Graph

Search for Another Location

Airport or City:

Trip Planner

Search our weather history database for the weather conditions in past years. The results will help you decide how hot, cold, wet, or windy it might be!

Date:

Astronomy

Nov. 26, 2013 Rise Set
Actual Time 7:06 AM EST 4:55 PM EST
Civil Twilight 6:37 AM EST 5:24 PM EST
Nautical Twilight 6:05 AM EST 5:56 PM EST
Astronomical Twilight 5:33 AM EST 6:28 PM EST
Moon 12:14 AM EST (11/26) 12:56 PM EST (11/26)
Length of Visible Light 10h 46m
Length of Day
9h 48m
Last Quarter, 41% of the Moon is Illuminated
Nov 26
Last Quarter
Dec 2
New
Dec 9
First Quarter
Dec 17
Full
Dec 25
Last Quarter

Hourly Weather History & Observations

Time (EST) Temp. Windchill Dew Point Humidity Pressure Visibility Wind Dir Wind Speed Gust Speed Precip Events Conditions
12:53 AM 34.0 °F 28.8 °F 10.0 °F 37% 30.33 in 10.0 mi South 5.8 mph - N/A   Overcast
1:53 AM 34.0 °F 27.2 °F 10.9 °F 38% 30.31 in 10.0 mi South 8.1 mph - N/A   Overcast
2:53 AM 34.0 °F 26.6 °F 12.0 °F 40% 30.29 in 10.0 mi South 9.2 mph - 0.00 in   Overcast
3:53 AM 34.0 °F 28.0 °F 12.9 °F 42% 30.27 in 10.0 mi SSW 6.9 mph - N/A   Overcast
4:53 AM 34.0 °F 28.8 °F 14.0 °F 44% 30.28 in 10.0 mi South 5.8 mph - N/A   Overcast
5:53 AM 34.0 °F - 19.9 °F 56% 30.26 in 10.0 mi Calm Calm - 0.00 in Rain Light Rain
6:53 AM 33.1 °F 30.0 °F 23.0 °F 66% 30.26 in 10.0 mi SSE 3.5 mph - 0.00 in   Overcast
7:25 AM 33.1 °F 26.9 °F 23.0 °F 66% 30.25 in 10.0 mi South 6.9 mph - N/A   Overcast
7:53 AM 33.1 °F 26.1 °F 24.1 °F 70% 30.26 in 10.0 mi South 8.1 mph - N/A   Overcast
8:53 AM 33.1 °F 30.0 °F 26.1 °F 75% 30.25 in 10.0 mi South 3.5 mph - 0.00 in Rain Light Rain
9:53 AM 33.1 °F - 28.0 °F 82% 30.23 in 7.0 mi Calm Calm - 0.02 in Rain Light Rain
10:48 AM 33.8 °F - 28.4 °F 81% 30.20 in 7.0 mi Calm Calm - 0.02 in Rain Light Rain
10:53 AM 33.1 °F 30.0 °F 28.9 °F 85% 30.21 in 5.0 mi NE 3.5 mph - 0.02 in Rain Light Rain
11:38 AM 34.0 °F - 30.9 °F 89% 30.16 in 5.0 mi Calm Calm - 0.01 in Rain Light Rain
11:48 AM 33.8 °F - 30.2 °F 87% 30.16 in 5.0 mi Calm Calm - 0.01 in Rain Light Rain
11:51 AM 33.8 °F - 30.2 °F 87% 30.16 in 2.0 mi Calm Calm - 0.01 in Rain Light Rain
11:53 AM 33.1 °F 30.0 °F 30.9 °F 92% 30.17 in 2.0 mi North 3.5 mph - 0.01 in Rain Light Rain
12:00 PM 33.1 °F - 30.9 °F 92% 30.15 in 5.0 mi Calm Calm - 0.01 in Rain Light Rain
12:11 PM 33.1 °F - 30.9 °F 92% 30.15 in 2.5 mi Calm Calm - 0.02 in Rain Light Rain
12:19 PM 34.0 °F - 30.9 °F 89% 30.14 in 4.0 mi Calm Calm - 0.02 in Rain Light Rain
12:27 PM 34.0 °F 31.0 °F 30.9 °F 89% 30.14 in 2.0 mi NE 3.5 mph - 0.02 in Rain Light Rain
12:37 PM 34.0 °F 29.8 °F 32.0 °F 92% 30.13 in 2.0 mi ENE 4.6 mph - 0.03 in Rain Light Rain
12:53 PM 34.0 °F 31.0 °F 32.0 °F 92% 30.14 in 2.0 mi NE 3.5 mph - 0.03 in Rain Light Rain
1:53 PM 34.0 °F 29.8 °F 32.0 °F 92% 30.10 in 2.0 mi NE 4.6 mph - 0.02 in Rain Light Rain
2:53 PM 34.0 °F 28.0 °F 32.0 °F 92% 30.06 in 2.0 mi NNE 6.9 mph - 0.07 in Rain Light Rain
3:53 PM 33.1 °F 26.1 °F 32.0 °F 96% 30.01 in 2.0 mi NNE 8.1 mph - 0.07 in Rain Light Rain
4:53 PM 33.1 °F 26.1 °F 32.0 °F 96% 29.96 in 2.0 mi NNE 8.1 mph - 0.14 in Rain Rain
5:53 PM 33.1 °F 26.1 °F 32.0 °F 96% 29.90 in 2.0 mi NNE 8.1 mph - 0.26 in Rain Heavy Rain
6:26 PM 33.1 °F 25.5 °F 32.0 °F 96% 29.84 in 2.0 mi NE 9.2 mph - 0.16 in Rain Rain
6:53 PM 33.1 °F 25.5 °F 32.0 °F 96% 29.83 in 2.0 mi NNE 9.2 mph - 0.21 in Rain Rain
7:00 PM 33.1 °F 25.5 °F 32.0 °F 96% 29.81 in 2.5 mi NNE 9.2 mph - 0.01 in Rain Rain
7:53 PM 34.0 °F 31.0 °F 33.1 °F 96% 29.79 in 2.0 mi NNW 3.5 mph - 0.20 in Rain Heavy Rain
8:13 PM 34.0 °F - 34.0 °F 100% 29.75 in 2.0 mi Calm Calm - 0.10 in Rain Heavy Rain
8:22 PM 34.0 °F - 33.1 °F 96% 29.74 in 1.8 mi Calm Calm - 0.16 in Rain Heavy Rain
8:32 PM 34.0 °F 31.0 °F 34.0 °F 100% 29.74 in 1.8 mi NW 3.5 mph - 0.23 in Rain Heavy Rain
8:53 PM 35.1 °F 32.2 °F 34.0 °F 96% 29.75 in 1.2 mi Variable 3.5 mph - 0.41 in Rain Heavy Rain
9:26 PM 36.0 °F - 35.1 °F 97% 29.69 in 1.5 mi Calm Calm - 0.23 in Rain Heavy Rain
9:53 PM 36.0 °F 32.1 °F 36.0 °F 100% 29.69 in 1.5 mi SSE 4.6 mph - 0.35 in Rain Rain
10:31 PM 35.1 °F - 35.1 °F 100% 29.65 in 2.0 mi Calm Calm - 0.06 in Rain Light Rain
10:53 PM 36.0 °F - 35.1 °F 97% 29.64 in 3.0 mi Calm Calm - 0.07 in Rain Light Rain
11:35 PM 37.9 °F - 37.0 °F 97% 29.60 in 2.5 mi Calm Calm - 0.04 in Rain Light Rain
11:51 PM 37.4 °F - 35.6 °F 93% 29.59 in 1.8 mi Calm Calm - 0.11 in Rain Rain
11:53 PM 37.9 °F - 37.0 °F 97% 29.60 in 1.5 mi Calm Calm - 0.12 in Rain Rain